When you browse on this site, cookies collect data to enhance your experience and personalize the content and advertising you see.
Visit our Privacy Policy to learn more. By continuing to use the site, you agree to this use of cookies and data.
  • In Schweiz
  • Länderverzeichnis
  • Für 7 Tage
  • Wassertemperatur
  • Wetterkarte
  • Widgets
  • user-avatar
    Anmelden

    Stündliche Wetter Marakaibo

    Heute, 27 Mai, Mittwoch

    Zeit Temperatur Niederschläge Wind Luftdruck Luftfeuchtigkeit
    00:00 +29°C° 0 mm 3 m/S 751 mmHg 81%
    01:00 +29°C° 0 mm 3 m/S 750 mmHg 82%
    02:00 +28°C° 0 mm 3 m/S 750 mmHg 83%
    03:00 +28°C° 0 mm 3 m/S 750 mmHg 85%
    04:00 +28°C° 0 mm 2 m/S 750 mmHg 86%
    05:00 +29°C° 0 mm 2 m/S 751 mmHg 83%
    06:00 +29°C° 0 mm 2 m/S 751 mmHg 79%
    07:00 +30°C° 0 mm 2 m/S 752 mmHg 76%
    08:00 +32°C° 0 mm 2 m/S 752 mmHg 68%
    09:00 +35°C° 0 mm 2 m/S 752 mmHg 61%
    10:00 +36°C° 0 mm 2 m/S 752 mmHg 53%
    11:00 +37°C° 0.1 mm 2 m/S 751 mmHg 52%
    12:00 +37°C° 0.1 mm 2 m/S 751 mmHg 50%
    13:00 +38°C° 0.1 mm 2 m/S 750 mmHg 49%
    14:00 +37°C° 0 mm 2 m/S 749 mmHg 50%
    15:00 +37°C° 0 mm 2 m/S 749 mmHg 51%
    16:00 +37°C° 0 mm 2 m/S 748 mmHg 52%
    17:00 +35°C° 0.9 mm 3 m/S 749 mmHg 62%
    18:00 +33°C° 0.9 mm 3 m/S 749 mmHg 72%
    19:00 +30°C° 0.9 mm 3 m/S 750 mmHg 82%
    20:00 +29°C° 0.2 mm 3 m/S 750 mmHg 83%
    21:00 +29°C° 0.2 mm 3 m/S 751 mmHg 83%
    22:00 +29°C° 0.2 mm 3 m/S 752 mmHg 84%
    23:00 +29°C° 0 mm 3 m/S 751 mmHg 85%

    Morgen, 28 Mai, Donnerstag

    Zeit Temperatur Niederschläge Wind Luftdruck Luftfeuchtigkeit
    00:00 +29°C° 0 mm 3 m/S 751 mmHg 86%
    01:00 +28°C° 0 mm 4 m/S 750 mmHg 87%
    02:00 +28°C° 0 mm 4 m/S 750 mmHg 88%
    03:00 +28°C° 0 mm 3 m/S 750 mmHg 88%
    04:00 +28°C° 0 mm 3 m/S 750 mmHg 89%
    05:00 +28°C° 0.1 mm 3 m/S 751 mmHg 87%
    06:00 +29°C° 0.1 mm 3 m/S 751 mmHg 85%
    07:00 +29°C° 0.1 mm 3 m/S 751 mmHg 83%
    08:00 +31°C° 0.1 mm 3 m/S 752 mmHg 74%
    09:00 +34°C° 0.1 mm 2 m/S 752 mmHg 65%
    10:00 +35°C° 0.1 mm 2 m/S 752 mmHg 56%
    11:00 +36°C° 0.3 mm 2 m/S 751 mmHg 55%
    12:00 +36°C° 0.3 mm 2 m/S 751 mmHg 54%
    13:00 +36°C° 0.3 mm 1 m/S 750 mmHg 53%
    14:00 +35°C° 0.2 mm 1 m/S 750 mmHg 54%
    15:00 +36°C° 0.2 mm 2 m/S 750 mmHg 54%
    16:00 +36°C° 0.2 mm 2 m/S 749 mmHg 55%
    17:00 +34°C° 1.4 mm 2 m/S 750 mmHg 65%
    18:00 +31°C° 1.4 mm 3 m/S 751 mmHg 75%
    19:00 +29°C° 1.4 mm 4 m/S 751 mmHg 85%
    20:00 +29°C° 1.9 mm 4 m/S 751 mmHg 85%
    21:00 +28°C° 1.9 mm 3 m/S 752 mmHg 84%
    22:00 +28°C° 1.9 mm 3 m/S 752 mmHg 84%
    23:00 +28°C° 0.2 mm 3 m/S 752 mmHg 86%

    übermorgen, 29 Mai, Freitag

    Zeit Temperatur Niederschläge Wind Luftdruck Luftfeuchtigkeit
    00:00 +28°C° 0.2 mm 3 m/S 752 mmHg 87%
    01:00 +28°C° 0.2 mm 3 m/S 751 mmHg 88%
    02:00 +28°C° 0.7 mm 3 m/S 751 mmHg 89%
    03:00 +28°C° 0.7 mm 3 m/S 751 mmHg 89%
    04:00 +28°C° 0.7 mm 3 m/S 751 mmHg 89%
    05:00 +28°C° 2.4 mm 3 m/S 752 mmHg 89%
    06:00 +28°C° 2.4 mm 3 m/S 752 mmHg 89%
    07:00 +27°C° 2.4 mm 3 m/S 753 mmHg 89%
    08:00 +28°C° 0.4 mm 3 m/S 753 mmHg 87%
    09:00 +28°C° 0.4 mm 3 m/S 753 mmHg 85%
    10:00 +29°C° 0.4 mm 3 m/S 753 mmHg 83%
    11:00 +30°C° 0 mm 2 m/S 752 mmHg 78%
    12:00 +30°C° 0 mm 2 m/S 752 mmHg 73%
    13:00 +31°C° 0 mm 1 m/S 751 mmHg 68%
    14:00 +31°C° 0 mm 1 m/S 751 mmHg 66%
    15:00 +32°C° 0 mm 1 m/S 750 mmHg 64%
    16:00 +32°C° 0 mm 1 m/S 750 mmHg 63%
    17:00 +31°C° 0 mm 1 m/S 751 mmHg 67%
    18:00 +30°C° 0 mm 1 m/S 751 mmHg 70%
    19:00 +29°C° 0 mm 1 m/S 752 mmHg 74%
    20:00 +29°C° 1 mm 1 m/S 752 mmHg 79%
    21:00 +28°C° 1 mm 2 m/S 753 mmHg 83%
    22:00 +28°C° 1 mm 2 m/S 753 mmHg 87%
    23:00 +28°C° 1 mm 2 m/S 753 mmHg 88%

    30 Mai, Samstag

    Zeit Temperatur Niederschläge Wind Luftdruck Luftfeuchtigkeit
    00:00 +28°C° 1 mm 2 m/S 752 mmHg 88%
    01:00 +28°C° 1 mm 2 m/S 752 mmHg 88%
    02:00 +27°C° 0.5 mm 2 m/S 752 mmHg 89%
    03:00 +27°C° 0.5 mm 1 m/S 752 mmHg 90%
    04:00 +27°C° 0.5 mm 1 m/S 752 mmHg 91%
    05:00 +27°C° 0.2 mm 1 m/S 752 mmHg 90%
    06:00 +28°C° 0.2 mm 1 m/S 753 mmHg 90%
    07:00 +28°C° 0.2 mm 1 m/S 753 mmHg 89%
    08:00 +29°C° 0.2 mm 1 m/S 753 mmHg 82%
    09:00 +31°C° 0.2 mm 1 m/S 753 mmHg 75%
    10:00 +32°C° 0.2 mm 1 m/S 753 mmHg 67%
    11:00 +33°C° 0.2 mm 1 m/S 753 mmHg 64%
    12:00 +33°C° 0.2 mm 1 m/S 752 mmHg 61%
    13:00 +34°C° 0.2 mm 1 m/S 751 mmHg 58%
    14:00 +34°C° 0.1 mm 1 m/S 751 mmHg 58%
    15:00 +34°C° 0.1 mm 1 m/S 751 mmHg 58%
    16:00 +33°C° 0.1 mm 1 m/S 751 mmHg 58%
    17:00 +32°C° 0.5 mm 2 m/S 751 mmHg 66%
    18:00 +31°C° 0.5 mm 3 m/S 752 mmHg 73%
    19:00 +29°C° 0.5 mm 4 m/S 752 mmHg 80%
    20:00 +29°C° 0.5 mm 5 m/S 753 mmHg 82%
    21:00 +28°C° 0.5 mm 5 m/S 754 mmHg 84%
    22:00 +28°C° 0.5 mm 5 m/S 754 mmHg 85%
    23:00 +28°C° 0.6 mm 4 m/S 754 mmHg 86%

    31 Mai, Sonntag

    Zeit Temperatur Niederschläge Wind Luftdruck Luftfeuchtigkeit
    00:00 +28°C° 0.6 mm 4 m/S 754 mmHg 86%
    01:00 +27°C° 0.6 mm 3 m/S 753 mmHg 86%
    02:00 +27°C° 0.7 mm 3 m/S 753 mmHg 86%
    03:00 +27°C° 0.7 mm 2 m/S 753 mmHg 87%
    04:00 +27°C° 0.7 mm 2 m/S 753 mmHg 88%
    05:00 +27°C° 1.3 mm 2 m/S 754 mmHg 87%
    06:00 +27°C° 1.3 mm 2 m/S 754 mmHg 87%
    07:00 +27°C° 1.3 mm 1 m/S 754 mmHg 87%
    08:00 +28°C° 0.8 mm 2 m/S 754 mmHg 85%
    09:00 +29°C° 0.8 mm 2 m/S 754 mmHg 83%
    10:00 +29°C° 0.8 mm 2 m/S 755 mmHg 81%
    11:00 +30°C° 0.4 mm 2 m/S 754 mmHg 75%
    12:00 +31°C° 0.4 mm 2 m/S 753 mmHg 70%
    13:00 +32°C° 0.4 mm 2 m/S 753 mmHg 65%
    14:00 +32°C° 0.4 mm 2 m/S 752 mmHg 64%
    15:00 +32°C° 0.4 mm 1 m/S 752 mmHg 64%
    16:00 +32°C° 0.4 mm 1 m/S 752 mmHg 64%
    17:00 +31°C° 0.9 mm 2 m/S 752 mmHg 72%
    18:00 +29°C° 0.9 mm 3 m/S 753 mmHg 79%
    19:00 +28°C° 0.9 mm 3 m/S 753 mmHg 86%
    20:00 +28°C° 0.5 mm 3 m/S 753 mmHg 86%
    21:00 +28°C° 0.5 mm 2 m/S 754 mmHg 86%
    22:00 +28°C° 0.5 mm 2 m/S 754 mmHg 85%
    23:00 +28°C° 0.2 mm 1 m/S 754 mmHg 86%

    1 Juni, Montag

    Zeit Temperatur Niederschläge Wind Luftdruck Luftfeuchtigkeit
    00:00 +28°C° 0.2 mm 1 m/S 754 mmHg 86%
    01:00 +27°C° 0.2 mm 1 m/S 753 mmHg 86%
    02:00 +27°C° 0.8 mm 1 m/S 753 mmHg 87%
    03:00 +27°C° 0.8 mm 1 m/S 753 mmHg 87%
    04:00 +27°C° 0.8 mm 1 m/S 753 mmHg 88%
    05:00 +27°C° 2 mm 2 m/S 753 mmHg 89%
    06:00 +27°C° 2 mm 2 m/S 754 mmHg 90%
    07:00 +26°C° 2 mm 3 m/S 754 mmHg 91%
    08:00 +27°C° 1.6 mm 3 m/S 754 mmHg 89%
    09:00 +27°C° 1.6 mm 3 m/S 755 mmHg 88%
    10:00 +28°C° 1.6 mm 3 m/S 755 mmHg 87%
    11:00 +28°C° 0.4 mm 2 m/S 754 mmHg 83%
    12:00 +29°C° 0.4 mm 2 m/S 754 mmHg 79%
    13:00 +30°C° 0.4 mm 2 m/S 753 mmHg 75%
    14:00 +30°C° 0.3 mm 2 m/S 753 mmHg 74%
    15:00 +30°C° 0.3 mm 2 m/S 752 mmHg 73%
    16:00 +30°C° 0.3 mm 2 m/S 752 mmHg 72%
    17:00 +30°C° 0.5 mm 3 m/S 753 mmHg 75%
    18:00 +29°C° 0.5 mm 3 m/S 753 mmHg 79%
    19:00 +28°C° 0.5 mm 3 m/S 754 mmHg 82%
    20:00 +28°C° 0.1 mm 2 m/S 754 mmHg 83%
    21:00 +27°C° 0.1 mm 2 m/S 754 mmHg 84%
    22:00 +27°C° 0.1 mm 2 m/S 754 mmHg 85%
    23:00 +27°C° 0 mm 2 m/S 754 mmHg 85%
    Mehr zeigen